DW9672 Weather Reports


time (UTC)temp
C
wind
direction
speed
KPH
gust
KPH
rain 1hr
cm
rain 24hr
cm
rain mn
cm
humidity
%
barometer
mb
20260903033035 25 183 0.0 0.0 0.00 0.03 0.03 95 1013.8
20260903031534 25 183 0.0 0.0 0.00 0.03 0.03 95 1013.7
20260903030033 25 183 0.0 0.0 0.00 0.03 0.03 95 1013.7
20260903024532 25 183 0.0 0.0 0.00 0.03 0.03 94 1013.7
20260903023048 26 183 0.0 0.0 0.00 0.03 0.03 94 1013.6
20260903021519 26 183 0.0 0.0 0.00 0.03 0.03 93 1013.6
20260903020015 26 183 0.0 0.0 0.00 0.03 0.03 93 1013.5
20260903014614 26 183 0.0 0.0 0.00 0.03 0.03 92 1013.5
20260903013100 27 183 0.0 0.0 0.00 0.03 0.03 91 1013.4
20260903011556 27 183 0.0 0.0 0.00 0.03 0.03 90 1013.2
20260903010045 27 183 0.0 0.0 0.00 0.03 0.03 90 1013.1
20260903004541 28 183 0.0 0.0 0.00 0.03 0.03 88 1013.0
20260903003020 28 183 0.0 0.0 0.00 0.03 0.03 87 1013.0
20260903001529 30 183 0.0 0.0 0.00 0.03 0.03 85 1013.1
20260903000002 30 183 0.0 0.0 0.00 0.03 0.03 83 1013.2
20260902234501 31 183 0.0 0.0 0.03 0.03 0.03 78 1013.2
20260902233043 32 183 0.0 0.0 0.03 0.03 0.03 76 1013.3
20260902231545 33 183 0.0 0.0 0.03 0.03 0.03 72 1013.4
20260902230024 33 182 0.0 1.6 0.03 0.03 0.03 70 1013.4
20260902224523 33 182 0.0 0.0 0.03 0.03 0.03 69 1013.4
20260902223011 34 246 0.0 1.6 0.00 0.00 0.00 66 1013.5
20260902221505 34 222 0.0 1.6 0.00 0.00 0.00 66 1013.4
20260902220049 34 180 0.0 4.8 0.00 0.00 0.00 66 1013.5
20260902214547 34 202 0.0 4.8 0.00 0.00 0.00 65 1013.6
20260902213027 34 186 1.6 9.7 0.00 0.00 0.00 64 1013.6
20260902211535 35 225 1.6 8.0 0.00 0.00 0.00 63 1013.7
20260902210006 34 276 0.0 8.0 0.00 0.00 0.00 61 1013.8
20260902204506 34 167 0.0 11.3 0.00 0.00 0.00 61 1013.9
20260902203054 34 203 0.0 9.7 0.00 0.00 0.00 63 1013.9
20260902201553 34 246 0.0 9.7 0.00 0.00 0.00 63 1013.9
20260902200052 34 202 1.6 8.0 0.00 0.00 0.00 63 1014.1
20260902194549 34 164 1.6 8.0 0.00 0.00 0.00 62 1014.2
20260902193048 33 196 0.0 11.3 0.00 0.00 0.00 65 1014.3
20260902191549 33 189 1.6 9.7 0.00 0.00 0.00 64 1014.4
20260902190043 33 161 1.6 12.9 0.00 0.00 0.00 65 1014.6
20260902184540 33 226 0.0 11.3 0.00 0.00 0.00 64 1014.7
20260902183023 32 217 1.6 8.0 0.00 0.00 0.00 66 1014.7
20260902181518 32 224 3.2 9.7 0.00 0.00 0.00 67 1014.8
20260902180104 32 219 1.6 9.7 0.00 0.00 0.00 66 1014.9
20260902174603 32 165 1.6 9.7 0.00 0.00 0.00 69 1015.0
20260902173039 31 260 0.0 8.0 0.00 0.00 0.00 69 1015.0
20260902171545 31 258 0.0 8.0 0.00 0.00 0.00 70 1015.1
20260902170023 31 229 3.2 9.7 0.00 0.00 0.00 70 1015.3
20260902164521 31 254 4.8 9.7 0.00 0.00 0.00 71 1015.5
20260902163018 30 223 0.0 11.3 0.00 0.00 0.00 73 1015.5
20260902161534 30 228 0.0 12.9 0.00 0.00 0.00 73 1015.5
20260902160016 30 360 1.6 9.7 0.00 0.00 0.00 74 1015.6
20260902154514 30 296 1.6 8.0 0.00 0.00 0.00 73 1015.4
20260902153010 30 199 1.6 6.4 0.00 0.00 0.00 74 1015.4
20260902151512 29 213 0.0 8.0 0.00 0.00 0.00 74 1015.2
20260902150049 29 238 1.6 8.0 0.00 0.00 0.00 76 1015.1
20260902144546 28 217 0.0 6.4 0.00 0.00 0.00 78 1015.2
20260902143026 28 278 0.0 8.0 0.00 0.00 0.00 80 1015.3
20260902141527 27 221 0.0 4.8 0.00 0.00 0.00 81 1015.3
20260902140005 27 265 1.6 6.4 0.00 0.00 0.00 82 1015.5
20260902134602 26 246 0.0 4.8 0.00 0.00 0.00 84 1015.5
20260902133039 26 178 0.0 11.3 0.00 0.00 0.00 85 1015.6
20260902131538 25 178 0.0 4.8 0.00 0.00 0.00 85 1015.6
20260902130017 25 211 0.0 0.0 0.00 0.00 0.00 88 1015.7
20260902124527 23 210 0.0 0.0 0.00 0.00 0.00 91 1015.7
20260902123059 22 211 0.0 0.0 0.00 0.00 0.00 94 1015.8
20260902121607 22 215 0.0 0.0 0.00 0.00 0.00 96 1015.7
20260902120036 22 215 0.0 0.0 0.00 0.00 0.00 96 1015.6
20260902114603 22 215 0.0 0.0 0.00 0.00 0.00 96 1015.6
20260902113018 22 215 0.0 0.0 0.00 0.00 0.00 96 1015.5
20260902111519 22 215 0.0 0.0 0.00 0.00 0.00 96 1015.6
20260902104558 22 215 0.0 0.0 0.00 0.00 0.00 96 1015.7
20260902103049 22 215 0.0 0.0 0.00 0.00 0.00 95 1015.4
20260902101543 22 215 0.0 0.0 0.00 0.00 0.00 95 1015.4
20260902100042 22 215 0.0 0.0 0.00 0.00 0.00 95 1015.5
20260902094540 22 215 0.0 0.0 0.00 0.00 0.00 94 1015.4
20260902093039 22 215 0.0 0.0 0.00 0.00 0.00 94 1015.3
20260902091547 22 215 0.0 0.0 0.00 0.00 0.00 94 1015.2
20260902090048 22 215 0.0 0.0 0.00 0.00 0.00 93 1015.3
20260902084536 23 215 0.0 0.0 0.00 0.00 0.00 93 1015.2
20260902083026 23 215 0.0 0.0 0.00 0.00 0.00 93 1015.2
20260902081517 23 215 0.0 0.0 0.00 0.00 0.00 93 1015.0
20260902080103 23 210 0.0 0.0 0.00 0.00 0.00 93 1014.9
20260902074612 23 210 0.0 0.0 0.00 0.00 0.00 94 1014.9
20260902073040 23 209 0.0 0.0 0.00 0.00 0.00 94 1014.9
20260902071539 23 209 0.0 0.0 0.00 0.00 0.00 94 1014.8
20260902070021 23 209 0.0 0.0 0.00 0.00 0.00 95 1015.0
20260902064530 23 209 0.0 0.0 0.00 0.00 0.00 95 1015.1
20260902063008 23 209 0.0 0.0 0.00 0.00 0.00 95 1015.2
20260902061501 23 209 0.0 0.0 0.00 0.00 0.00 96 1015.2
20260902060053 23 209 0.0 0.0 0.00 0.00 0.00 96 1015.3
20260902054543 23 209 0.0 0.0 0.00 0.00 0.00 96 1015.3
20260902053024 23 209 0.0 0.0 0.00 0.00 0.00 96 1015.2
20260902051522 23 209 0.0 0.0 0.00 0.00 0.00 96 1015.2
20260902050007 24 209 0.0 0.0 0.00 0.00 0.00 96 1015.1
20260902044504 24 209 0.0 0.0 0.00 0.00 0.00 96 1015.1
20260902043056 24 209 0.0 0.0 0.00 0.00 0.00 96 1015.1
20260902041552 24 209 0.0 0.0 0.00 0.00 0.00 96 1015.1
20260902040051 24 209 0.0 0.0 0.00 0.00 0.00 96 1015.0
20260902034603 25 209 0.0 0.0 0.00 0.00 0.00 95 1015.1